Location: Burbank
(38.7788°N, 114.0429°W)
Time: 09:37:35
(UTC+00:00)

Courier 1B Rocket - Pass Details

Date: 15 May 2026
Orbit: 920 x 1201 km, 28.2° (Epoch: 10 June)

Event Time Altitude Azimuth Distance (km) Brightness Sun altitude
Rises 18:30:37 0° 257° (WSW) 3,590 7.9 66.1°
Reaches altitude 10° 18:33:30 10° 247° (WSW) 2,673 7.4 66.4°
Maximum altitude 18:38:58 30° 189° (S) 1,700 7.1 67.1°
Drops below altitude 10° 18:44:45 10° 131° (SE) 2,825 7.9 67.7°
Sets 18:47:53 0° 121° (ESE) 3,827 8.4 68.0°
